Weather History for Asheville, NC

Change the Weather History Date:

Tuesday, December 15, 2009

  Actual Average Record
Temperature  
Mean Temperature 47 °F 39 °F  
Max Temperature 55 °F 49 °F 72 °F (1948)
Min Temperature 38 °F 29 °F 4 °F (1914)
Degree Days  
Heating Degree Days 18 26  
Month to date heating degree days 378 362  
Since 1 July heating degree days 1184 1229  
Cooling Degree Days 0 0  
Month to date cooling degree days 0 0  
Year to date cooling degree days 774 863  
Moisture  
Dew Point 44 °F    
Average Humidity 82    
Maximum Humidity 100    
Minimum Humidity 64    
Precipitation  
Precipitation 0.00 in 0.11 in 2.45 in (1901)
Month to date precipitation 4.49 1.91  
Year to date precipitation 57.46 43.89  
Snow  
Snow 0.00 in 0.00 in 2.00 in (1871)
Month to date snowfall T 0.2  
Since 1 July snowfall T 0.3  
Snow Depth 0.00 in    
Sea Level Pressure  
Sea Level Pressure 30.08 in    
Wind  
Wind Speed 13 mph (NNW)    
Max Wind Speed 30 mph    
Max Gust Speed 40 mph    
Visibility 9 miles    
Events      
T = Trace of Precipitation, MM = Missing Value Source: NWS Daily Summary

Daily Weather History Graph

Daily Weather History Graph

Search for Another Location

Airport:

Trip Planner

Search our weather history database for the weather conditions in past years. The results will help you decide how hot, cold, wet, or windy it might be!

Date:

Astronomy

Dec. 15, 2009 Rise Set
Actual Time 7:32 AM EST 5:18 PM EST
Civil Twilight 7:03 AM EST 5:47 PM EST
Nautical Twilight 6:31 AM EST 6:19 PM EST
Astronomical Twilight 6:00 AM EST 6:50 PM EST
Moon 6:54 AM EST (12/15) 4:33 PM EST (12/15)
Length of Visible Light 10h 43m
Length of Day
9h 46m
Waning Crescent, 1% of the Moon is Illuminated
Dec 15
Waning Crescent
Dec 16
New
Dec 24
First Quarter
Dec 31
Full
Jan 7
Last Quarter

Hourly Weather History & Observations

Time (EST) Temp. Windchill Dew Point Humidity Pressure Visibility Wind Dir Wind Speed Gust Speed Precip Events Conditions
12:54 AM 46.9 °F - 46.9 °F 100% 30.00 in 6.0 mi Calm Calm - N/A   Clear
1:54 AM 48.0 °F - 46.9 °F 96% 30.00 in 5.0 mi NNW 6.9 mph - N/A   Mostly Cloudy
2:54 AM 48.0 °F - 46.9 °F 96% 29.99 in 8.0 mi Calm Calm - N/A   Overcast
3:54 AM 46.0 °F 44.8 °F 46.0 °F 100% 29.99 in 5.0 mi NNW 3.5 mph - N/A   Clear
4:54 AM 46.0 °F 43.9 °F 45.0 °F 96% 29.99 in 8.0 mi NNW 4.6 mph - N/A   Clear
5:54 AM 46.9 °F - 46.0 °F 97% 29.99 in 8.0 mi Calm Calm - N/A   Clear
6:54 AM 48.0 °F - 46.0 °F 93% 30.00 in 10.0 mi NNW 9.2 mph - N/A   Clear
7:54 AM 50.0 °F - 48.0 °F 93% 30.01 in 10.0 mi NNW 11.5 mph - N/A   Clear
8:54 AM 51.1 °F - 48.9 °F 92% 30.03 in 10.0 mi North 12.7 mph - N/A   Clear
9:25 AM 53.6 °F - 51.8 °F 94% 30.06 in 10.0 mi NNW 16.1 mph - N/A   Partly Cloudy
9:42 AM 53.6 °F - 51.8 °F 94% 30.07 in 9.0 mi NNW 18.4 mph - N/A   Mostly Cloudy
9:54 AM 53.1 °F - 51.1 °F 93% 30.04 in 10.0 mi NNW 17.3 mph - N/A   Mostly Cloudy
10:01 AM 53.6 °F - 51.8 °F 94% 30.07 in 7.0 mi NNW 18.4 mph - N/A   Scattered Clouds
10:54 AM 54.0 °F - 51.1 °F 90% 30.06 in 7.0 mi NNW 12.7 mph - N/A   Scattered Clouds
11:02 AM 53.6 °F - 50.0 °F 88% 30.09 in 10.0 mi NNW 15.0 mph - N/A   Mostly Cloudy
11:54 AM 54.0 °F - 48.0 °F 80% 30.04 in 10.0 mi North 13.8 mph - N/A   Overcast
12:54 PM 54.0 °F - 46.0 °F 75% 30.04 in 10.0 mi North 13.8 mph 23.0 mph N/A   Scattered Clouds
1:45 PM 51.8 °F - 44.6 °F 76% 30.06 in 10.0 mi North 16.1 mph 21.9 mph N/A   Mostly Cloudy
1:54 PM 52.0 °F - 45.0 °F 77% 30.05 in 10.0 mi North 17.3 mph 21.9 mph N/A   Mostly Cloudy
2:54 PM 51.1 °F - 43.0 °F 74% 30.06 in 10.0 mi North 15.0 mph 25.3 mph N/A   Overcast
3:51 PM 50.0 °F - 42.8 °F 76% 30.10 in 10.0 mi North 13.8 mph 20.7 mph N/A   Scattered Clouds
3:54 PM 50.0 °F - 43.0 °F 77% 30.09 in 10.0 mi North 15.0 mph 21.9 mph N/A   Partly Cloudy
4:54 PM 48.0 °F - 41.0 °F 77% 30.12 in 10.0 mi NNW 20.7 mph 26.5 mph N/A   Clear
5:54 PM 46.0 °F 39.9 °F 37.9 °F 73% 30.15 in 10.0 mi North 13.8 mph 26.5 mph N/A   Clear
6:54 PM 44.1 °F 37.7 °F 36.0 °F 73% 30.18 in 10.0 mi North 12.7 mph 23.0 mph N/A   Clear
7:54 PM 42.1 °F 34.5 °F 35.1 °F 76% 30.20 in 10.0 mi North 15.0 mph 25.3 mph N/A   Clear
8:54 PM 41.0 °F 31.9 °F 33.1 °F 73% 30.21 in 10.0 mi North 19.6 mph 31.1 mph N/A   Clear
9:54 PM 41.0 °F 30.2 °F 30.0 °F 65% 30.23 in 10.0 mi NNW 27.6 mph 35.7 mph N/A   Clear
10:54 PM 39.0 °F 27.8 °F 28.0 °F 65% 30.25 in 10.0 mi NNW 26.5 mph 39.1 mph N/A   Clear
11:54 PM 37.9 °F 28.5 °F 27.0 °F 65% 30.27 in 10.0 mi NNW 17.3 mph 27.6 mph N/A   Clear